| time (UTC) | temp F | wind direction | speed knots | gust knots | rain 1hr in | rain 24hr in | rain mn in | humidity % | barometer mb |
| 20260903043046 | 80 | 223 | 0.0 | 0.0 | 0.00 | 0.00 | 0.00 | 81 | 1012.2 |
| 20260903041601 | 80 | 227 | 0.0 | 0.0 | 0.00 | 0.00 | 0.00 | 81 | 1012.1 |
| 20260903040053 | 80 | 212 | 0.0 | 0.0 | 0.00 | 0.00 | 0.00 | 81 | 1011.9 |
| 20260903034541 | 80 | 220 | 0.0 | 0.9 | 0.00 | 0.00 | 0.00 | 81 | 1011.9 |
| 20260903033041 | 80 | 218 | 0.0 | 0.0 | 0.00 | 0.00 | 0.00 | 81 | 1012.0 |
| 20260903031539 | 80 | 221 | 0.0 | 0.0 | 0.00 | 0.00 | 0.00 | 81 | 1012.1 |
| 20260903030043 | 80 | 212 | 0.0 | 0.0 | 0.00 | 0.00 | 0.00 | 81 | 1012.4 |
| 20260903024540 | 79 | 215 | 0.0 | 0.0 | 0.00 | 0.00 | 0.00 | 82 | 1012.5 |
| 20260903023038 | 79 | 218 | 0.0 | 0.0 | 0.00 | 0.00 | 0.00 | 83 | 1012.6 |
| 20260903021540 | 79 | 219 | 0.0 | 0.0 | 0.00 | 0.00 | 0.00 | 82 | 1012.6 |
| 20260903020036 | 80 | 219 | 0.0 | 0.0 | 0.00 | 0.00 | 0.00 | 82 | 1012.6 |
| 20260903014537 | 80 | 219 | 0.0 | 0.0 | 0.00 | 0.00 | 0.00 | 81 | 1012.6 |
| 20260903013039 | 80 | 221 | 0.0 | 0.0 | 0.00 | 0.00 | 0.00 | 80 | 1012.5 |
| 20260903011545 | 80 | 213 | 0.0 | 0.0 | 0.00 | 0.00 | 0.00 | 80 | 1012.4 |
| 20260903010041 | 81 | 215 | 0.0 | 0.0 | 0.00 | 0.00 | 0.00 | 79 | 1012.4 |
| 20260903004535 | 81 | 216 | 0.0 | 0.0 | 0.00 | 0.00 | 0.00 | 78 | 1012.3 |
| 20260903003035 | 82 | 215 | 0.0 | 0.0 | 0.00 | 0.00 | 0.00 | 76 | 1012.1 |
| 20260903001554 | 83 | 217 | 0.0 | 0.0 | 0.00 | 0.00 | 0.00 | 74 | 1012.1 |
| 20260903000032 | 84 | 217 | 0.0 | 0.0 | 0.00 | 0.00 | 0.00 | 72 | 1012.2 |
| 20260902234535 | 85 | 217 | 0.0 | 0.0 | 0.00 | 0.00 | 0.00 | 70 | 1012.1 |
| 20260902233033 | 86 | 217 | 0.0 | 0.0 | 0.00 | 0.00 | 0.00 | 68 | 1012.1 |
| 20260902231532 | 87 | 221 | 0.0 | 0.0 | 0.00 | 0.00 | 0.00 | 67 | 1012.1 |
| 20260902230030 | 88 | 227 | 0.0 | 0.0 | 0.00 | 0.00 | 0.00 | 64 | 1012.0 |
| 20260902224532 | 89 | 216 | 0.0 | 0.9 | 0.00 | 0.00 | 0.00 | 64 | 1012.0 |
| 20260902223031 | 89 | 221 | 0.0 | 0.9 | 0.00 | 0.00 | 0.00 | 62 | 1012.1 |
| 20260902221535 | 89 | 221 | 0.0 | 4.3 | 0.00 | 0.00 | 0.00 | 62 | 1012.2 |
| 20260902220028 | 89 | 227 | 0.0 | 4.3 | 0.00 | 0.00 | 0.00 | 63 | 1012.2 |
| 20260902214528 | 89 | 229 | 0.0 | 13.0 | 0.00 | 0.00 | 0.00 | 60 | 1012.1 |
| 20260902213025 | 90 | 212 | 0.0 | 5.2 | 0.00 | 0.00 | 0.00 | 61 | 1012.2 |
| 20260902211526 | 90 | 219 | 0.0 | 3.5 | 0.00 | 0.00 | 0.00 | 63 | 1012.2 |
| 20260902210023 | 90 | 221 | 0.0 | 8.7 | 0.00 | 0.00 | 0.00 | 61 | 1012.3 |
| 20260902204522 | 90 | 188 | 0.0 | 2.6 | 0.00 | 0.00 | 0.00 | 67 | 1012.4 |
| 20260902203019 | 90 | 228 | 0.0 | 4.3 | 0.00 | 0.00 | 0.00 | 62 | 1012.6 |
| 20260902201518 | 91 | 252 | 0.0 | 7.8 | 0.00 | 0.00 | 0.00 | 61 | 1012.7 |
| 20260902200017 | 91 | 273 | 0.0 | 2.6 | 0.00 | 0.00 | 0.00 | 59 | 1012.8 |
| 20260902194515 | 92 | 275 | 0.0 | 0.9 | 0.00 | 0.00 | 0.00 | 61 | 1013.0 |
| 20260902193013 | 92 | 223 | 0.0 | 0.0 | 0.00 | 0.00 | 0.00 | 59 | 1013.2 |
| 20260902191512 | 92 | 230 | 0.0 | 0.9 | 0.00 | 0.00 | 0.00 | 61 | 1013.3 |
| 20260902190011 | 91 | 219 | 0.0 | 7.8 | 0.00 | 0.00 | 0.00 | 61 | 1013.5 |
| 20260902184511 | 92 | 216 | 0.0 | 0.0 | 0.00 | 0.00 | 0.00 | 64 | 1013.6 |
| 20260902183010 | 92 | 230 | 0.0 | 0.0 | 0.00 | 0.00 | 0.00 | 63 | 1013.7 |
| 20260902181507 | 91 | 224 | 0.0 | 0.0 | 0.00 | 0.00 | 0.00 | 63 | 1013.9 |
| 20260902180013 | 91 | 225 | 0.0 | 2.6 | 0.00 | 0.00 | 0.00 | 61 | 1014.1 |
| 20260902174504 | 90 | 245 | 0.0 | 0.9 | 0.00 | 0.00 | 0.00 | 63 | 1014.2 |
| 20260902173006 | 90 | 223 | 0.0 | 2.6 | 0.00 | 0.00 | 0.00 | 64 | 1014.4 |
| 20260902171619 | 90 | 229 | 0.0 | 0.9 | 0.00 | 0.00 | 0.00 | 67 | 1014.7 |
| 20260902170057 | 89 | 220 | 0.0 | 0.0 | 0.00 | 0.00 | 0.00 | 70 | 1014.6 |
| 20260902164555 | 88 | 222 | 0.0 | 5.2 | 0.00 | 0.02 | 0.00 | 70 | 1014.8 |
| 20260902163053 | 88 | 217 | 0.0 | 1.7 | 0.00 | 0.02 | 0.00 | 72 | 1014.9 |
| 20260902161550 | 87 | 213 | 0.0 | 0.0 | 0.00 | 0.02 | 0.00 | 75 | 1014.8 |
| 20260902160048 | 87 | 212 | 0.0 | 0.0 | 0.00 | 0.02 | 0.00 | 75 | 1014.9 |
| 20260902154544 | 86 | 202 | 0.0 | 0.9 | 0.00 | 0.02 | 0.00 | 78 | 1014.9 |
| 20260902153041 | 85 | 219 | 0.0 | 0.0 | 0.00 | 0.02 | 0.00 | 80 | 1014.9 |
| 20260902151538 | 84 | 195 | 0.0 | 0.9 | 0.00 | 0.02 | 0.00 | 80 | 1015.0 |
| 20260902150034 | 83 | 213 | 0.0 | 0.0 | 0.00 | 0.33 | 0.00 | 80 | 1015.0 |
| 20260902144532 | 83 | 202 | 0.0 | 0.0 | 0.00 | 0.33 | 0.00 | 79 | 1014.9 |
| 20260902143026 | 82 | 218 | 0.0 | 0.0 | 0.00 | 0.33 | 0.00 | 79 | 1014.8 |
| 20260902141530 | 80 | 221 | 0.0 | 0.0 | 0.00 | 0.33 | 0.00 | 82 | 1014.8 |
| 20260902140017 | 79 | 207 | 0.0 | 0.0 | 0.00 | 0.34 | 0.00 | 88 | 1014.8 |
| 20260902134522 | 77 | 217 | 0.0 | 0.0 | 0.00 | 0.34 | 0.00 | 92 | 1014.8 |
| 20260902133012 | 76 | 217 | 0.0 | 0.0 | 0.00 | 0.34 | 0.00 | 93 | 1014.8 |
| 20260902131510 | 75 | 218 | 0.0 | 0.0 | 0.00 | 0.34 | 0.00 | 94 | 1014.9 |
| 20260902130010 | 74 | 218 | 0.0 | 0.0 | 0.00 | 0.34 | 0.00 | 95 | 1014.9 |
| 20260902124510 | 73 | 218 | 0.0 | 0.0 | 0.00 | 0.34 | 0.00 | 95 | 1014.7 |
| 20260902123005 | 72 | 218 | 0.0 | 0.0 | 0.00 | 0.34 | 0.00 | 95 | 1014.6 |
| 20260902121502 | 72 | 219 | 0.0 | 0.0 | 0.00 | 0.34 | 0.00 | 95 | 1014.7 |
| 20260902120100 | 71 | 219 | 0.0 | 0.0 | 0.00 | 0.34 | 0.00 | 95 | 1014.7 |
| 20260902114556 | 71 | 219 | 0.0 | 0.0 | 0.00 | 0.34 | 0.00 | 94 | 1014.7 |
| 20260902113052 | 70 | 219 | 0.0 | 0.0 | 0.00 | 0.34 | 0.00 | 94 | 1014.5 |
| 20260902111552 | 70 | 219 | 0.0 | 0.0 | 0.00 | 0.34 | 0.00 | 94 | 1014.4 |
| 20260902110049 | 70 | 219 | 0.0 | 0.0 | 0.00 | 0.34 | 0.00 | 94 | 1014.3 |
| 20260902104547 | 71 | 219 | 0.0 | 0.0 | 0.00 | 0.34 | 0.00 | 94 | 1014.1 |
| 20260902103046 | 71 | 219 | 0.0 | 0.0 | 0.00 | 0.34 | 0.00 | 94 | 1014.2 |
| 20260902101546 | 71 | 219 | 0.0 | 0.0 | 0.00 | 0.34 | 0.00 | 93 | 1014.0 |
| 20260902100046 | 71 | 219 | 0.0 | 0.0 | 0.00 | 0.34 | 0.00 | 94 | 1014.1 |
| 20260902094546 | 71 | 219 | 0.0 | 0.0 | 0.00 | 0.34 | 0.00 | 94 | 1014.0 |
| 20260902093044 | 71 | 219 | 0.0 | 0.0 | 0.00 | 0.34 | 0.00 | 93 | 1014.1 |
| 20260902091547 | 71 | 219 | 0.0 | 0.0 | 0.00 | 0.34 | 0.00 | 93 | 1014.1 |
| 20260902090043 | 71 | 219 | 0.0 | 0.0 | 0.00 | 0.34 | 0.00 | 92 | 1014.1 |
| 20260902084542 | 71 | 219 | 0.0 | 0.0 | 0.00 | 0.34 | 0.00 | 92 | 1014.0 |
| 20260902083040 | 71 | 219 | 0.0 | 0.0 | 0.00 | 0.34 | 0.00 | 91 | 1013.9 |
| 20260902081539 | 71 | 219 | 0.0 | 0.0 | 0.00 | 0.34 | 0.00 | 91 | 1013.8 |
| 20260902080039 | 72 | 219 | 0.0 | 0.0 | 0.00 | 0.34 | 0.00 | 89 | 1013.8 |
| 20260902074549 | 72 | 219 | 0.0 | 0.0 | 0.00 | 0.34 | 0.00 | 89 | 1013.7 |
| 20260902073033 | 73 | 219 | 0.0 | 0.0 | 0.00 | 0.34 | 0.00 | 88 | 1013.7 |
| 20260902071531 | 73 | 219 | 0.0 | 0.0 | 0.00 | 0.34 | 0.00 | 88 | 1013.7 |
| 20260902070029 | 74 | 219 | 0.0 | 0.0 | 0.00 | 0.34 | 0.00 | 88 | 1013.6 |
| 20260902064528 | 74 | 219 | 0.0 | 0.0 | 0.00 | 0.34 | 0.00 | 88 | 1013.7 |
| 20260902063048 | 75 | 219 | 0.0 | 0.0 | 0.00 | 0.34 | 0.00 | 87 | 1013.9 |
| 20260902061522 | 75 | 219 | 0.0 | 0.0 | 0.00 | 0.34 | 0.00 | 86 | 1013.9 |
| 20260902060020 | 76 | 219 | 0.0 | 0.0 | 0.00 | 0.34 | 0.00 | 85 | 1013.9 |
| 20260902054519 | 77 | 219 | 0.0 | 0.0 | 0.00 | 0.34 | 0.00 | 85 | 1013.9 |
| 20260902053014 | 77 | 219 | 0.0 | 0.0 | 0.00 | 0.34 | 0.00 | 85 | 1013.7 |
| 20260902051513 | 77 | 219 | 0.0 | 0.0 | 0.00 | 0.34 | 0.00 | 85 | 1013.5 |
| 20260902050010 | 77 | 213 | 0.0 | 0.0 | 0.00 | 0.34 | 0.00 | 85 | 1013.2 |
| 20260902044513 | 78 | 219 | 0.0 | 0.0 | 0.00 | 0.34 | 0.00 | 85 | 1013.2 |